Fairbanks, AK

2:48 PM AKDT on June 19, 2019 (GMT -0800)
Fairbanks International

Weather History for PAFA - January, 1975

Change the Weather History Date:

Thursday, January 23, 1975

  Actual Average Record
Temperature  
Mean Temperature -5 °F -8 °F  
Max Temperature 1 °F 1 °F 39 °F (1981)
Min Temperature -11 °F -17 °F -60 °F (1906)
Degree Days  
Heating Degree Days 70 73  
Month to date heating degree days 1683  
Since 1 July heating degree days 7955  
Cooling Degree Days 0 0  
Month to date cooling degree days 0  
Year to date cooling degree days 0  
Moisture  
Dew Point -17 °F    
Average Humidity 60    
Maximum Humidity 72    
Minimum Humidity 50    
Precipitation  
Precipitation 0.00 in 0.01 in 0.39 in (1950)
Month to date precipitation 0.44  
Year to date precipitation 0.44  
Snow  
Snow 0.00 in 0.20 in 6.80 in (1950)
Month to date snowfall 7.8  
Since 1 July snowfall 45.7  
Snow Depth -    
Sea Level Pressure  
Sea Level Pressure 29.52 in    
Wind  
Wind Speed 2 mph (NE)    
Max Wind Speed 8 mph    
Max Gust Speed -    
Visibility 15 miles    
Events      
T = Trace of Precipitation, MM = Missing Value Source: NWS Daily Summary

Daily Weather History Graph

Daily Weather History Graph

Search for Another Location

Airport or City:

Astronomy

Jan. 23, 1975 Rise Set
Actual Time 9:05 AM AHST 3:01 PM AHST
Civil Twilight 8:00 AM AHST 4:06 PM AHST
Nautical Twilight 6:57 AM AHST 5:10 PM AHST
Astronomical Twilight 5:59 AM AHST 6:08 PM AHST
Moon 10:29 AM AHST (1/23) 6:05 AM AHST (1/23)
Length of Visible Light 8h 05m
Length of Day
5h 55m
Waxing Gibbous, 82% of the Moon is Illuminated
Jan 23
Waxing Gibbous
Jan 27
Full
Feb 2
Last Quarter
Feb 10
New
Feb 18
First Quarter

Hourly Weather History & Observations

Time (AHST) Temp. Windchill Dew Point Humidity Pressure Visibility Wind Dir Wind Speed Gust Speed Precip Events Conditions
12:00 AM -6.0 °F -14.7 °F -15.0 °F 65% 29.42 in 15.0 mi NNE 3.5 mph - N/A   Unknown
1:00 AM -5.1 °F - -15.0 °F 62% 29.42 in 15.0 mi Calm Calm - N/A   Partly Cloudy
2:00 AM -8.0 °F - -18.9 °F 59% 29.41 in 15.0 mi Calm Calm - N/A   Partly Cloudy
3:00 AM -8.0 °F - -18.9 °F 59% 29.41 in 15.0 mi Calm Calm - N/A   Partly Cloudy
4:00 AM -8.0 °F - -18.9 °F 59% 29.41 in 15.0 mi Calm Calm - N/A   Partly Cloudy
5:00 AM - - - N/A% 29.41 in 15.0 mi NNE 3.5 mph - N/A   Scattered Clouds
6:00 AM -9.0 °F -18.2 °F -20.9 °F 56% 29.42 in 15.0 mi NE 3.5 mph - N/A   Unknown
7:00 AM -6.0 °F - -16.1 °F 62% 29.43 in 15.0 mi Calm Calm - N/A   Partly Cloudy
8:00 AM -9.0 °F -20.4 °F -20.9 °F 56% 29.44 in 40.0 mi NE 4.6 mph - N/A   Partly Cloudy
9:00 AM -9.0 °F - -20.0 °F 59% 29.45 in 60.0 mi Calm Calm - N/A   Partly Cloudy
10:00 AM -8.0 °F - -18.9 °F 59% 29.46 in 60.0 mi Calm Calm - N/A   Partly Cloudy
11:00 AM -6.0 °F - -16.1 °F 62% 29.49 in 60.0 mi Calm Calm - N/A   Partly Cloudy
12:00 PM - - - N/A% 29.50 in 60.0 mi North 3.5 mph - N/A   Scattered Clouds
1:00 PM 1.0 °F -8.7 °F -8.0 °F 66% 29.50 in 60.0 mi North 4.6 mph - N/A   Partly Cloudy
2:00 PM -0.0 °F - -7.1 °F 72% 29.51 in 60.0 mi Calm Calm - N/A   Partly Cloudy
3:00 PM -2.0 °F - -15.0 °F 54% 29.53 in 60.0 mi Calm Calm - N/A   Partly Cloudy
4:00 PM -2.0 °F -16.6 °F -14.1 °F 57% 29.57 in 40.0 mi SSW 8.1 mph - N/A   Clear
5:00 PM -4.0 °F -14.6 °F -11.0 °F 72% 29.59 in 40.0 mi South 4.6 mph - N/A   Clear
6:00 PM -6.0 °F - -16.1 °F 62% 29.63 in 15.0 mi Calm Calm - N/A   Clear
7:00 PM -8.0 °F - -18.9 °F 59% 29.65 in 15.0 mi Calm Calm - N/A   Clear
8:00 PM -8.0 °F -19.2 °F -18.9 °F 59% 29.67 in 15.0 mi North 4.6 mph - N/A   Clear
9:00 PM -9.9 °F -19.2 °F -20.9 °F 59% 29.69 in 15.0 mi ENE 3.5 mph - N/A   Clear
10:00 PM -11.0 °F - -23.1 °F 55% 29.71 in 15.0 mi Calm Calm - N/A   Clear
11:00 PM -11.9 °F - -26.0 °F 50% 29.74 in 15.0 mi Calm Calm - N/A   Clear